Time,TemperatureF,DewpointF,PressureIn,WindDirection,WindDirectionDegrees,WindSpeedMPH,WindSpeedGustMPH,Humidity,HourlyPrecipIn,Conditions,Clouds,dailyrainin,SoftwareType,DateUTC
2013-03-09 00:03:00,32.6,32.6,30.14,NE,41,3.0,8.0,100,0.00,,CLR,0.00,VWS V14.00,2013-03-09 05:03:00,
2013-03-09 00:08:00,32.5,32.5,30.14,NNW,346,3.0,6.0,100,0.00,,CLR,0.00,VWS V14.00,2013-03-09 05:08:00,
2013-03-09 00:13:00,32.3,32.3,30.15,North,356,3.0,6.0,100,0.00,,CLR,0.00,VWS V14.00,2013-03-09 05:13:00,
2013-03-09 00:18:00,32.2,32.2,30.14,NNE,31,2.0,6.0,100,0.00,,CLR,0.00,VWS V14.00,2013-03-09 05:18:00,
2013-03-09 00:23:00,32.0,31.8,30.14,NW,311,1.0,6.0,99,0.00,,CLR,0.00,VWS V14.00,2013-03-09 05:23:00,
2013-03-09 00:28:00,32.0,32.0,30.15,NW,316,1.0,6.0,100,0.00,,CLR,0.00,VWS V14.00,2013-03-09 05:28:00,
2013-03-09 00:33:00,32.0,32.0,30.14,NE,34,2.0,7.0,100,0.00,,CLR,0.00,VWS V14.00,2013-03-09 05:33:00,
2013-03-09 00:38:00,32.2,32.2,30.14,NNE,26,2.0,7.0,100,0.00,,CLR,0.00,VWS V14.00,2013-03-09 05:38:00,
2013-03-09 00:43:00,32.2,32.2,30.14,NNW,336,2.0,8.0,100,0.00,,CLR,0.00,VWS V14.00,2013-03-09 05:43:00,
2013-03-09 00:48:00,32.2,32.2,30.15,North,352,1.0,8.0,100,0.00,,CLR,0.00,VWS V14.00,2013-03-09 05:48:00,
2013-03-09 00:53:00,32.0,32.0,30.15,North,0,3.0,8.0,100,0.00,,CLR,0.00,VWS V14.00,2013-03-09 05:53:00,
2013-03-09 00:58:00,32.0,32.0,30.15,North,0,3.0,8.0,100,0.00,,CLR,0.00,VWS V14.00,2013-03-09 05:58:00,
2013-03-09 01:03:00,31.9,31.9,30.15,North,0,1.0,4.0,100,0.00,,CLR,0.00,VWS V14.00,2013-03-09 06:03:00,
2013-03-09 01:08:00,31.7,31.5,30.15,North,0,3.0,4.0,99,0.00,,CLR,0.00,VWS V14.00,2013-03-09 06:08:00,
2013-03-09 01:13:00,31.7,31.2,30.14,North,0,3.0,4.0,98,0.00,,CLR,0.00,VWS V14.00,2013-03-09 06:13:00,
2013-03-09 01:18:00,31.9,31.1,30.15,NNE,28,0.0,6.0,97,0.00,,CLR,0.00,VWS V14.00,2013-03-09 06:18:00,
2013-03-09 01:23:00,31.9,30.9,30.15,NNW,345,2.0,6.0,96,0.00,,CLR,0.00,VWS V14.00,2013-03-09 06:23:00,
2013-03-09 01:28:00,31.9,30.6,30.15,NNE,32,1.0,7.0,95,0.00,,CLR,0.00,VWS V14.00,2013-03-09 06:28:00,
2013-03-09 01:33:00,31.7,30.2,30.15,NNE,29,3.0,4.0,94,0.00,,CLR,0.00,VWS V14.00,2013-03-09 06:33:00,
2013-03-09 01:38:00,31.7,29.4,30.15,NNE,32,2.0,5.0,91,0.00,,CLR,0.00,VWS V14.00,2013-03-09 06:38:00,
2013-03-09 01:43:00,31.6,28.5,30.15,NNE,31,1.0,6.0,88,0.00,,CLR,0.00,VWS V14.00,2013-03-09 06:43:00,
2013-03-09 01:48:00,31.3,27.6,30.15,NNW,329,2.0,6.0,86,0.00,,CLR,0.00,VWS V14.00,2013-03-09 06:48:00,
2013-03-09 01:53:00,31.3,27.3,30.15,North,351,1.0,6.0,85,0.00,,CLR,0.00,VWS V14.00,2013-03-09 06:53:00,
2013-03-09 01:58:00,31.1,26.5,30.15,North,351,1.0,6.0,83,0.00,,CLR,0.00,VWS V14.00,2013-03-09 06:58:00,
2013-03-09 02:03:00,31.0,26.2,30.15,North,351,2.0,4.0,82,0.00,,CLR,0.00,VWS V14.00,2013-03-09 07:03:00,
2013-03-09 02:08:00,30.7,25.6,30.15,North,352,1.0,5.0,81,0.00,,CLR,0.00,VWS V14.00,2013-03-09 07:08:00,
2013-03-09 02:13:00,30.7,25.3,30.15,North,352,2.0,5.0,80,0.00,,CLR,0.00,VWS V14.00,2013-03-09 07:13:00,
2013-03-09 02:18:00,30.6,25.2,30.15,North,352,1.0,5.0,80,0.00,,CLR,0.00,VWS V14.00,2013-03-09 07:18:00,
2013-03-09 02:23:00,30.5,24.8,30.15,North,351,1.0,5.0,79,0.00,,CLR,0.00,VWS V14.00,2013-03-09 07:23:00,
2013-03-09 02:28:00,30.4,24.7,30.15,NNW,342,2.0,6.0,79,0.00,,CLR,0.00,VWS V14.00,2013-03-09 07:28:00,
2013-03-09 02:33:00,30.4,24.4,30.15,NNW,342,3.0,3.0,78,0.00,,CLR,0.00,VWS V14.00,2013-03-09 07:33:00,
2013-03-09 02:38:00,30.1,24.1,30.15,NNW,334,0.0,5.0,78,0.00,,CLR,0.00,VWS V14.00,2013-03-09 07:38:00,
2013-03-09 02:43:00,29.8,23.8,30.15,NNW,334,3.0,5.0,78,0.00,,CLR,0.00,VWS V14.00,2013-03-09 07:43:00,
2013-03-09 02:48:00,29.6,23.6,30.15,NW,317,2.0,5.0,78,0.00,,CLR,0.00,VWS V14.00,2013-03-09 07:48:00,
2013-03-09 02:53:00,29.6,23.6,30.14,NNW,327,1.0,5.0,78,0.00,,CLR,0.00,VWS V14.00,2013-03-09 07:53:00,
2013-03-09 02:58:00,29.5,23.5,30.14,NNW,327,2.0,5.0,78,0.00,,CLR,0.00,VWS V14.00,2013-03-09 07:58:00,
2013-03-09 03:03:00,29.6,23.3,30.15,NNW,327,2.0,3.0,77,0.00,,CLR,0.00,VWS V14.00,2013-03-09 08:03:00,
2013-03-09 03:08:00,29.6,23.3,30.14,NNW,332,1.0,5.0,77,0.00,,CLR,0.00,VWS V14.00,2013-03-09 08:08:00,
2013-03-09 03:13:00,29.6,23.3,30.14,NNW,332,0.0,5.0,77,0.00,,CLR,0.00,VWS V14.00,2013-03-09 08:13:00,
2013-03-09 03:18:00,29.5,23.2,30.14,North,357,0.0,5.0,77,0.00,,CLR,0.00,VWS V14.00,2013-03-09 08:18:00,
2013-03-09 03:23:00,29.3,23.0,30.14,North,357,1.0,5.0,77,0.00,,CLR,0.00,VWS V14.00,2013-03-09 08:23:00,
2013-03-09 03:28:00,29.3,23.0,30.14,North,357,1.0,5.0,77,0.00,,CLR,0.00,VWS V14.00,2013-03-09 08:28:00,
2013-03-09 03:33:00,29.2,22.9,30.14,North,357,1.0,4.0,77,0.00,,CLR,0.00,VWS V14.00,2013-03-09 08:33:00,
2013-03-09 03:38:00,29.2,22.9,30.14,North,357,0.0,4.0,77,0.00,,CLR,0.00,VWS V14.00,2013-03-09 08:38:00,
2013-03-09 03:43:00,28.9,22.6,30.14,North,357,1.0,4.0,77,0.00,,CLR,0.00,VWS V14.00,2013-03-09 08:43:00,
2013-03-09 03:48:00,28.8,22.8,30.15,North,357,0.0,4.0,78,0.00,,CLR,0.00,VWS V14.00,2013-03-09 08:48:00,
2013-03-09 03:53:00,28.5,22.5,30.15,North,357,2.0,4.0,78,0.00,,CLR,0.00,VWS V14.00,2013-03-09 08:53:00,
2013-03-09 03:58:00,28.5,22.5,30.15,North,357,1.0,4.0,78,0.00,,CLR,0.00,VWS V14.00,2013-03-09 08:58:00,
2013-03-09 04:03:00,28.5,22.5,30.15,North,357,0.0,4.0,78,0.00,,CLR,0.00,VWS V14.00,2013-03-09 09:03:00,
2013-03-09 04:08:00,28.3,22.3,30.15,North,357,1.0,4.0,78,0.00,,CLR,0.00,VWS V14.00,2013-03-09 09:08:00,
2013-03-09 04:13:00,28.2,22.2,30.16,North,357,1.0,4.0,78,0.00,,CLR,0.00,VWS V14.00,2013-03-09 09:13:00,
2013-03-09 04:18:00,28.2,22.2,30.16,North,357,0.0,4.0,78,0.00,,CLR,0.00,VWS V14.00,2013-03-09 09:18:00,
2013-03-09 04:23:00,28.0,22.0,30.16,North,357,0.0,5.0,78,0.00,,CLR,0.00,VWS V14.00,2013-03-09 09:23:00,
2013-03-09 04:28:00,28.0,22.3,30.16,North,357,1.0,5.0,79,0.00,,CLR,0.00,VWS V14.00,2013-03-09 09:28:00,
2013-03-09 04:33:00,27.9,22.2,30.17,North,357,1.0,3.0,79,0.00,,CLR,0.00,VWS V14.00,2013-03-09 09:33:00,
2013-03-09 04:38:00,27.9,22.2,30.17,North,357,2.0,4.0,79,0.00,,CLR,0.00,VWS V14.00,2013-03-09 09:38:00,
2013-03-09 04:43:00,27.7,22.0,30.17,North,356,2.0,6.0,79,0.00,,CLR,0.00,VWS V14.00,2013-03-09 09:43:00,
2013-03-09 04:48:00,27.9,22.2,30.17,North,357,1.0,6.0,79,0.00,,CLR,0.00,VWS V14.00,2013-03-09 09:48:00,
2013-03-09 04:53:00,27.9,21.9,30.18,North,357,1.0,6.0,78,0.00,,CLR,0.00,VWS V14.00,2013-03-09 09:53:00,
2013-03-09 04:58:00,27.7,22.0,30.18,North,357,3.0,6.0,79,0.00,,CLR,0.00,VWS V14.00,2013-03-09 09:58:00,
2013-03-09 05:03:00,27.6,22.2,30.18,North,357,4.0,5.0,80,0.00,,CLR,0.00,VWS V14.00,2013-03-09 10:03:00,
2013-03-09 05:08:00,27.6,22.2,30.18,North,357,1.0,5.0,80,0.00,,CLR,0.00,VWS V14.00,2013-03-09 10:08:00,
2013-03-09 05:13:00,27.6,22.0,30.18,North,357,3.0,5.0,79,0.00,,CLR,0.00,VWS V14.00,2013-03-09 10:13:00,
2013-03-09 05:18:00,27.9,21.9,30.18,North,359,2.0,5.0,78,0.00,,CLR,0.00,VWS V14.00,2013-03-09 10:18:00,
2013-03-09 05:23:00,27.8,21.9,30.18,North,359,0.0,5.0,78,0.00,,CLR,0.00,VWS V14.00,2013-03-09 10:23:00,
2013-03-09 05:28:00,27.6,21.6,30.19,North,359,0.0,5.0,78,0.00,,CLR,0.00,VWS V14.00,2013-03-09 10:28:00,
2013-03-09 05:33:00,27.6,21.6,30.18,North,359,1.0,3.0,78,0.00,,CLR,0.00,VWS V14.00,2013-03-09 10:33:00,
2013-03-09 05:38:00,27.6,21.6,30.18,North,359,0.0,4.0,78,0.00,,CLR,0.00,VWS V14.00,2013-03-09 10:38:00,
2013-03-09 05:43:00,27.4,21.5,30.19,North,359,0.0,4.0,78,0.00,,CLR,0.00,VWS V14.00,2013-03-09 10:43:00,
2013-03-09 05:48:00,27.4,21.5,30.19,North,359,0.0,5.0,78,0.00,,CLR,0.00,VWS V14.00,2013-03-09 10:48:00,
2013-03-09 05:53:00,27.3,21.4,30.19,North,359,0.0,5.0,78,0.00,,CLR,0.00,VWS V14.00,2013-03-09 10:53:00,
2013-03-09 05:58:00,27.4,21.5,30.19,North,359,2.0,5.0,78,0.00,,CLR,0.00,VWS V14.00,2013-03-09 10:58:00,
2013-03-09 06:03:00,27.4,21.5,30.19,North,359,2.0,3.0,78,0.00,,CLR,0.00,VWS V14.00,2013-03-09 11:03:00,
2013-03-09 06:07:00,27.1,21.2,30.19,North,359,2.0,3.0,78,0.00,,CLR,0.00,VWS V14.00,2013-03-09 11:07:00,
2013-03-09 06:12:00,27.0,21.1,30.20,North,359,1.0,3.0,78,0.00,,CLR,0.00,VWS V14.00,2013-03-09 11:12:00,
2013-03-09 06:17:00,27.0,21.1,30.19,North,359,0.0,3.0,78,0.00,,CLR,0.00,VWS V14.00,2013-03-09 11:17:00,
2013-03-09 06:22:00,27.1,21.2,30.19,North,359,0.0,4.0,78,0.00,,CLR,0.00,VWS V14.00,2013-03-09 11:22:00,
2013-03-09 06:27:00,27.0,21.1,30.20,North,359,1.0,4.0,78,0.00,,CLR,0.00,VWS V14.00,2013-03-09 11:27:00,
2013-03-09 06:32:00,27.1,21.2,30.20,North,359,3.0,4.0,78,0.00,,CLR,0.00,VWS V14.00,2013-03-09 11:32:00,
2013-03-09 06:37:00,27.3,21.4,30.20,North,0,1.0,7.0,78,0.00,,CLR,0.00,VWS V14.00,2013-03-09 11:37:00,
2013-03-09 06:42:00,27.4,21.5,30.21,North,0,1.0,7.0,78,0.00,,CLR,0.00,VWS V14.00,2013-03-09 11:42:00,
2013-03-09 06:47:00,27.4,21.5,30.21,North,0,1.0,7.0,78,0.00,,CLR,0.00,VWS V14.00,2013-03-09 11:47:00,
2013-03-09 06:52:00,27.6,21.6,30.21,North,0,1.0,7.0,78,0.00,,CLR,0.00,VWS V14.00,2013-03-09 11:52:00,
2013-03-09 06:57:00,27.7,21.4,30.21,North,0,1.0,7.0,77,0.00,,CLR,0.00,VWS V14.00,2013-03-09 11:57:00,
2013-03-09 07:02:00,27.9,21.6,30.22,North,0,2.0,3.0,77,0.00,,CLR,0.00,VWS V14.00,2013-03-09 12:02:00,
2013-03-09 07:07:00,27.9,21.6,30.22,North,0,2.0,3.0,77,0.00,,CLR,0.00,VWS V14.00,2013-03-09 12:07:00,
2013-03-09 07:12:00,27.9,21.6,30.22,North,0,1.0,4.0,77,0.00,,CLR,0.00,VWS V14.00,2013-03-09 12:12:00,
2013-03-09 07:17:00,28.0,21.7,30.23,North,0,1.0,4.0,77,0.00,,CLR,0.00,VWS V14.00,2013-03-09 12:17:00,
2013-03-09 07:22:00,28.3,22.0,30.23,North,0,3.0,6.0,77,0.00,,CLR,0.00,VWS V14.00,2013-03-09 12:22:00,
2013-03-09 07:27:00,28.6,22.3,30.23,North,1,1.0,6.0,77,0.00,,CLR,0.00,VWS V14.00,2013-03-09 12:27:00,
2013-03-09 07:32:00,29.0,22.4,30.23,North,1,4.0,4.0,76,0.00,,CLR,0.00,VWS V14.00,2013-03-09 12:32:00,
2013-03-09 07:37:00,29.5,22.6,30.23,North,1,1.0,5.0,75,0.00,,CLR,0.00,VWS V14.00,2013-03-09 12:37:00,
2013-03-09 07:42:00,29.8,22.9,30.23,North,4,3.0,5.0,75,0.00,,CLR,0.00,VWS V14.00,2013-03-09 12:42:00,
2013-03-09 07:47:00,30.3,23.0,30.23,North,0,3.0,8.0,74,0.00,,CLR,0.00,VWS V14.00,2013-03-09 12:47:00,
2013-03-09 07:52:00,30.7,22.8,30.23,NNE,27,4.0,8.0,72,0.00,,CLR,0.00,VWS V14.00,2013-03-09 12:52:00,
2013-03-09 07:57:00,31.3,22.7,30.23,NE,38,3.0,10.0,70,0.00,,CLR,0.00,VWS V14.00,2013-03-09 12:57:00,
2013-03-09 08:02:00,31.9,23.2,30.23,ENE,58,2.0,4.0,70,0.00,,CLR,0.00,VWS V14.00,2013-03-09 13:02:00,
2013-03-09 08:07:00,32.3,22.9,30.22,NNE,14,5.0,9.0,68,0.00,,CLR,0.00,VWS V14.00,2013-03-09 13:07:00,
2013-03-09 08:12:00,33.2,23.5,30.22,NNE,32,2.0,9.0,67,0.00,,CLR,0.00,VWS V14.00,2013-03-09 13:12:00,
2013-03-09 08:17:00,33.8,23.7,30.23,NE,36,4.0,9.0,66,0.00,,CLR,0.00,VWS V14.00,2013-03-09 13:17:00,
2013-03-09 08:22:00,34.4,23.5,30.22,NE,34,4.0,9.0,64,0.00,,CLR,0.00,VWS V14.00,2013-03-09 13:22:00,
2013-03-09 08:27:00,34.5,22.8,30.22,NE,36,3.0,11.0,62,0.00,,CLR,0.00,VWS V14.00,2013-03-09 13:27:00,
2013-03-09 08:32:00,35.0,24.1,30.23,SSW,193,5.0,5.0,64,0.00,,CLR,0.00,VWS V14.00,2013-03-09 13:32:00,
2013-03-09 08:37:00,35.1,23.4,30.22,NE,53,4.0,12.0,62,0.00,,CLR,0.00,VWS V14.00,2013-03-09 13:37:00,
2013-03-09 08:42:00,35.5,23.8,30.23,NE,44,2.0,12.0,62,0.00,,CLR,0.00,VWS V14.00,2013-03-09 13:42:00,
2013-03-09 08:47:00,35.7,23.6,30.23,NNE,13,8.0,12.0,61,0.00,,CLR,0.00,VWS V14.00,2013-03-09 13:47:00,
2013-03-09 08:52:00,36.0,23.5,30.23,NNE,31,5.0,12.0,60,0.00,,CLR,0.00,VWS V14.00,2013-03-09 13:52:00,
2013-03-09 08:57:00,36.3,24.1,30.23,NE,55,4.0,13.0,61,0.01,,CLR,0.01,VWS V14.00,2013-03-09 13:57:00,
2013-03-09 09:02:00,36.5,24.7,30.23,North,0,3.0,8.0,62,0.01,,CLR,0.01,VWS V14.00,2013-03-09 14:02:00,
2013-03-09 09:07:00,36.4,22.6,30.23,NE,47,4.0,15.0,57,0.01,,CLR,0.01,VWS V14.00,2013-03-09 14:07:00,
2013-03-09 09:12:00,36.5,23.5,30.23,NNE,29,5.0,15.0,59,0.01,,CLR,0.01,VWS V14.00,2013-03-09 14:12:00,
2013-03-09 09:17:00,36.7,23.3,30.24,NNE,15,6.0,15.0,58,0.01,,CLR,0.01,VWS V14.00,2013-03-09 14:17:00,
2013-03-09 09:22:00,36.7,23.3,30.24,NNE,19,5.0,15.0,58,0.01,,CLR,0.01,VWS V14.00,2013-03-09 14:22:00,
2013-03-09 09:27:00,36.7,22.9,30.23,NE,41,4.0,15.0,57,0.01,,CLR,0.01,VWS V14.00,2013-03-09 14:27:00,
2013-03-09 09:32:00,36.9,23.9,30.24,NNE,19,3.0,8.0,59,0.01,,CLR,0.01,VWS V14.00,2013-03-09 14:32:00,
2013-03-09 09:37:00,37.3,23.5,30.23,NE,48,4.0,9.0,57,0.00,,CLR,0.01,VWS V14.00,2013-03-09 14:37:00,
2013-03-09 09:42:00,37.5,24.5,30.24,NE,51,3.0,9.0,59,0.00,,CLR,0.01,VWS V14.00,2013-03-09 14:42:00,
2013-03-09 09:47:00,37.5,23.7,30.23,ENE,70,5.0,14.0,57,0.00,,CLR,0.01,VWS V14.00,2013-03-09 14:47:00,
2013-03-09 09:52:00,37.8,24.4,30.24,NE,34,3.0,14.0,58,0.01,,CLR,0.02,VWS V14.00,2013-03-09 14:52:00,
2013-03-09 09:57:00,38.3,25.2,30.24,NE,54,2.0,14.0,59,0.01,,CLR,0.02,VWS V14.00,2013-03-09 14:57:00,
2013-03-09 10:02:00,38.8,24.9,30.24,ENE,70,4.0,7.0,57,0.01,,FEW200,0.02,VWS V14.00,2013-03-09 15:02:00,
2013-03-09 10:07:00,38.8,24.0,30.24,NE,44,2.0,7.0,55,0.02,,FEW200,0.03,VWS V14.00,2013-03-09 15:07:00,
2013-03-09 10:12:00,38.8,24.9,30.23,NE,38,4.0,9.0,57,0.02,,FEW200,0.03,VWS V14.00,2013-03-09 15:12:00,
2013-03-09 10:17:00,39.1,25.2,30.23,North,7,2.0,9.0,57,0.02,,FEW200,0.03,VWS V14.00,2013-03-09 15:17:00,
2013-03-09 10:22:00,39.7,26.1,30.23,ENE,58,5.0,9.0,58,0.03,,FEW200,0.04,VWS V14.00,2013-03-09 15:22:00,
2013-03-09 10:27:00,39.5,24.2,30.24,NNE,32,5.0,9.0,54,0.02,,FEW200,0.04,VWS V14.00,2013-03-09 15:27:00,
2013-03-09 10:32:00,39.4,24.6,30.24,ENE,58,4.0,9.0,55,0.03,,FEW200,0.05,VWS V14.00,2013-03-09 15:32:00,
2013-03-09 10:37:00,39.5,24.2,30.24,ENE,69,4.0,11.0,54,0.03,,FEW200,0.05,VWS V14.00,2013-03-09 15:37:00,
2013-03-09 10:42:00,39.8,25.4,30.24,ENE,63,4.0,11.0,56,0.04,,FEW200,0.06,VWS V14.00,2013-03-09 15:42:00,
2013-03-09 10:47:00,39.8,24.5,30.24,North,5,3.0,11.0,54,0.04,,FEW200,0.07,VWS V14.00,2013-03-09 15:47:00,
2013-03-09 10:52:00,40.2,25.3,30.24,NNE,24,5.0,11.0,55,0.04,,FEW200,0.07,VWS V14.00,2013-03-09 15:52:00,
2013-03-09 10:57:00,40.3,25.0,30.23,NNE,16,2.0,11.0,54,0.05,,FEW200,0.08,VWS V14.00,2013-03-09 15:57:00,
2013-03-09 11:02:00,40.4,24.2,30.24,NE,41,5.0,8.0,52,0.04,,FEW200,0.08,VWS V14.00,2013-03-09 16:02:00,
2013-03-09 11:07:00,40.4,24.6,30.24,NE,40,3.0,8.0,53,0.05,,FEW200,0.09,VWS V14.00,2013-03-09 16:07:00,
2013-03-09 11:12:00,40.8,25.9,30.24,ENE,75,3.0,8.0,55,0.04,,FEW200,0.09,VWS V14.00,2013-03-09 16:12:00,
2013-03-09 11:17:00,41.1,26.2,30.24,West,277,6.0,8.0,55,0.05,,FEW200,0.10,VWS V14.00,2013-03-09 16:17:00,
2013-03-09 11:22:00,41.7,26.7,30.24,NE,34,4.0,8.0,55,0.05,,FEW200,0.10,VWS V14.00,2013-03-09 16:22:00,
2013-03-09 11:27:00,41.7,26.3,30.24,North,351,5.0,9.0,54,0.05,,FEW200,0.11,VWS V14.00,2013-03-09 16:27:00,
2013-03-09 11:32:00,41.7,25.4,30.24,NNE,25,3.0,6.0,52,0.05,,FEW200,0.11,VWS V14.00,2013-03-09 16:32:00,
2013-03-09 11:37:00,41.9,25.6,30.24,NNE,20,4.0,8.0,52,0.05,,FEW200,0.12,VWS V14.00,2013-03-09 16:37:00,
2013-03-09 11:42:00,42.1,26.2,30.24,NNE,12,4.0,8.0,53,0.06,,FEW200,0.13,VWS V14.00,2013-03-09 16:42:00,
2013-03-09 11:47:00,42.4,26.0,30.25,North,6,3.0,8.0,52,0.05,,FEW200,0.13,VWS V14.00,2013-03-09 16:47:00,
2013-03-09 11:52:00,42.4,26.0,30.25,NNE,24,0.0,9.0,52,0.06,,FEW200,0.14,VWS V14.00,2013-03-09 16:52:00,
2013-03-09 11:57:00,42.8,25.9,30.24,NNE,25,4.0,9.0,51,0.06,,FEW200,0.15,VWS V14.00,2013-03-09 16:57:00,
2013-03-09 12:02:00,42.9,24.6,30.25,NE,56,6.0,9.0,48,0.06,,FEW200,0.16,VWS V14.00,2013-03-09 17:02:00,
2013-03-09 12:07:00,42.8,24.0,30.24,ENE,71,4.0,9.0,47,0.06,,FEW200,0.16,VWS V14.00,2013-03-09 17:07:00,
2013-03-09 12:12:00,43.1,25.7,30.24,ENE,70,4.0,10.0,50,0.07,,FEW200,0.17,VWS V14.00,2013-03-09 17:12:00,
2013-03-09 12:17:00,43.2,25.4,30.24,NNE,33,1.0,10.0,49,0.07,,FEW200,0.18,VWS V14.00,2013-03-09 17:17:00,
2013-03-09 12:22:00,43.5,25.1,30.24,NNE,33,3.0,10.0,48,0.07,,FEW200,0.19,VWS V14.00,2013-03-09 17:22:00,
2013-03-09 12:27:00,43.8,24.4,30.24,North,5,2.0,10.0,46,0.07,,FEW200,0.19,VWS V14.00,2013-03-09 17:27:00,
2013-03-09 12:32:00,44.0,26.1,30.24,North,358,5.0,5.0,49,0.07,,FEW200,0.20,VWS V14.00,2013-03-09 17:32:00,
2013-03-09 12:37:00,44.3,25.9,30.24,ENE,59,1.0,9.0,48,0.07,,FEW200,0.20,VWS V14.00,2013-03-09 17:37:00,
2013-03-09 12:42:00,44.7,25.7,30.23,NE,48,4.0,9.0,47,0.07,,FEW200,0.21,VWS V14.00,2013-03-09 17:42:00,
2013-03-09 12:47:00,44.8,26.3,30.23,East,81,3.0,9.0,48,0.08,,FEW200,0.22,VWS V14.00,2013-03-09 17:47:00,
2013-03-09 12:52:00,45.0,26.5,30.23,North,9,4.0,9.0,48,0.07,,FEW200,0.23,VWS V14.00,2013-03-09 17:52:00,
2013-03-09 12:57:00,45.2,27.2,30.23,NW,312,1.0,9.0,49,0.07,,FEW200,0.23,VWS V14.00,2013-03-09 17:57:00,
2013-03-09 13:02:00,45.3,25.8,30.23,North,4,3.0,5.0,46,0.08,,CLR,0.24,VWS V14.00,2013-03-09 18:02:00,
2013-03-09 13:07:00,45.6,26.5,30.23,North,11,6.0,6.0,47,0.07,,CLR,0.24,VWS V14.00,2013-03-09 18:07:00,
2013-03-09 13:12:00,45.6,26.5,30.23,NNW,331,3.0,6.0,47,0.08,,CLR,0.25,VWS V14.00,2013-03-09 18:12:00,
2013-03-09 13:17:00,45.6,26.0,30.22,North,0,2.0,9.0,46,0.07,,CLR,0.26,VWS V14.00,2013-03-09 18:17:00,
2013-03-09 13:22:00,45.6,25.5,30.22,NNE,33,7.0,9.0,45,0.07,,CLR,0.26,VWS V14.00,2013-03-09 18:22:00,
2013-03-09 13:27:00,45.6,26.5,30.22,ENE,58,1.0,9.0,47,0.07,,CLR,0.26,VWS V14.00,2013-03-09 18:27:00,
2013-03-09 13:32:00,45.9,26.8,30.22,ENE,71,4.0,6.0,47,0.07,,CLR,0.27,VWS V14.00,2013-03-09 18:32:00,
2013-03-09 13:37:00,46.1,27.0,30.23,NNE,28,3.0,6.0,47,0.07,,CLR,0.27,VWS V14.00,2013-03-09 18:37:00,
2013-03-09 13:42:00,46.1,26.5,30.22,NNE,31,4.0,6.0,46,0.07,,CLR,0.28,VWS V14.00,2013-03-09 18:42:00,
2013-03-09 13:47:00,46.2,27.6,30.22,NE,39,1.0,6.0,48,0.06,,CLR,0.28,VWS V14.00,2013-03-09 18:47:00,
2013-03-09 13:52:00,46.3,25.6,30.22,NE,44,3.0,7.0,44,0.06,,CLR,0.28,VWS V14.00,2013-03-09 18:52:00,
2013-03-09 13:57:00,46.3,26.7,30.22,NW,323,2.0,7.0,46,0.06,,CLR,0.29,VWS V14.00,2013-03-09 18:57:00,
2013-03-09 14:02:00,46.3,25.0,30.22,NE,52,5.0,8.0,43,0.06,,CLR,0.29,VWS V14.00,2013-03-09 19:02:00,
2013-03-09 14:07:00,46.3,26.1,30.22,North,11,3.0,8.0,45,0.05,,CLR,0.29,VWS V14.00,2013-03-09 19:07:00,
2013-03-09 14:12:00,46.5,27.4,30.22,NNE,21,1.0,8.0,47,0.05,,CLR,0.29,VWS V14.00,2013-03-09 19:12:00,
2013-03-09 14:17:00,46.8,26.6,30.22,NNE,22,1.0,8.0,45,0.06,,CLR,0.30,VWS V14.00,2013-03-09 19:17:00,
2013-03-09 14:22:00,47.0,27.3,30.22,NNE,22,2.0,8.0,46,0.05,,CLR,0.30,VWS V14.00,2013-03-09 19:22:00,
2013-03-09 14:27:00,47.2,28.5,30.22,NNE,22,2.0,8.0,48,0.05,,CLR,0.30,VWS V14.00,2013-03-09 19:27:00,
2013-03-09 14:32:00,47.3,28.1,30.22,East,90,2.0,7.0,47,0.04,,CLR,0.30,VWS V14.00,2013-03-09 19:32:00,
2013-03-09 14:37:00,47.5,28.3,30.21,East,91,1.0,7.0,47,0.04,,CLR,0.30,VWS V14.00,2013-03-09 19:37:00,
2013-03-09 14:42:00,47.5,28.8,30.22,East,91,1.0,7.0,48,0.04,,CLR,0.30,VWS V14.00,2013-03-09 19:42:00,
2013-03-09 14:47:00,47.2,28.0,30.22,East,91,4.0,7.0,47,0.03,,CLR,0.30,VWS V14.00,2013-03-09 19:47:00,
2013-03-09 14:52:00,46.9,27.7,30.22,East,90,3.0,7.0,47,0.03,,CLR,0.30,VWS V14.00,2013-03-09 19:52:00,
2013-03-09 14:57:00,46.9,27.7,30.22,NE,49,1.0,7.0,47,0.03,,CLR,0.30,VWS V14.00,2013-03-09 19:57:00,
2013-03-09 15:02:00,46.9,27.7,30.22,NE,49,2.0,5.0,47,0.04,,CLR,0.31,VWS V14.00,2013-03-09 20:02:00,
2013-03-09 15:07:00,47.1,27.4,30.21,ENE,59,2.0,6.0,46,0.03,,CLR,0.31,VWS V14.00,2013-03-09 20:07:00,
2013-03-09 15:12:00,47.2,29.0,30.22,ENE,59,4.0,6.0,49,0.03,,CLR,0.31,VWS V14.00,2013-03-09 20:12:00,
2013-03-09 15:17:00,47.3,28.1,30.22,ENE,57,3.0,6.0,47,0.03,,CLR,0.31,VWS V14.00,2013-03-09 20:17:00,
2013-03-09 15:22:00,47.1,28.9,30.22,ENE,58,3.0,6.0,49,0.03,,CLR,0.31,VWS V14.00,2013-03-09 20:22:00,
2013-03-09 15:27:00,46.8,30.6,30.22,ENE,66,2.0,8.0,53,0.02,,CLR,0.31,VWS V14.00,2013-03-09 20:27:00,
2013-03-09 15:32:00,45.8,32.3,30.22,ENE,69,4.0,6.0,59,0.02,,CLR,0.31,VWS V14.00,2013-03-09 20:32:00,
2013-03-09 15:37:00,44.7,32.1,30.22,SSE,152,5.0,6.0,61,0.02,,CLR,0.31,VWS V14.00,2013-03-09 20:37:00,
2013-03-09 15:42:00,44.0,32.6,30.23,SSE,159,3.0,6.0,64,0.02,,CLR,0.31,VWS V14.00,2013-03-09 20:42:00,
2013-03-09 15:47:00,43.5,32.5,30.22,SSE,165,2.0,6.0,65,0.02,,CLR,0.31,VWS V14.00,2013-03-09 20:47:00,
2013-03-09 15:52:00,43.1,32.5,30.22,SSE,151,2.0,7.0,66,0.02,,CLR,0.31,VWS V14.00,2013-03-09 20:52:00,
2013-03-09 15:57:00,42.5,32.0,30.23,ENE,67,2.0,7.0,66,0.01,,CLR,0.31,VWS V14.00,2013-03-09 20:57:00,
2013-03-09 16:02:00,42.1,32.0,30.24,SSE,155,5.0,5.0,67,0.01,,CLR,0.31,VWS V14.00,2013-03-09 21:02:00,
2013-03-09 16:07:00,42.0,32.2,30.24,SE,131,1.0,5.0,68,0.01,,CLR,0.31,VWS V14.00,2013-03-09 21:07:00,
2013-03-09 16:12:00,41.5,31.7,30.24,SE,142,3.0,5.0,68,0.01,,CLR,0.31,VWS V14.00,2013-03-09 21:12:00,
2013-03-09 16:17:00,41.2,31.8,30.24,SSE,166,2.0,6.0,69,0.01,,CLR,0.31,VWS V14.00,2013-03-09 21:17:00,
2013-03-09 16:22:00,40.8,31.4,30.25,ESE,105,1.0,6.0,69,0.01,,CLR,0.31,VWS V14.00,2013-03-09 21:22:00,
2013-03-09 16:27:00,40.5,31.9,30.25,SE,144,2.0,6.0,71,0.01,,CLR,0.31,VWS V14.00,2013-03-09 21:27:00,
2013-03-09 16:32:00,40.3,31.3,30.25,ENE,76,2.0,6.0,70,0.01,,CLR,0.31,VWS V14.00,2013-03-09 21:32:00,
2013-03-09 16:37:00,40.1,31.5,30.25,East,85,2.0,6.0,71,0.01,,CLR,0.31,VWS V14.00,2013-03-09 21:37:00,
2013-03-09 16:42:00,39.8,31.5,30.25,ESE,103,1.0,6.0,72,0.01,,CLR,0.31,VWS V14.00,2013-03-09 21:42:00,
2013-03-09 16:47:00,39.5,31.2,30.26,ESE,111,1.0,6.0,72,0.01,,CLR,0.31,VWS V14.00,2013-03-09 21:47:00,
2013-03-09 16:52:00,39.4,31.5,30.26,ESE,111,1.0,6.0,73,0.01,,CLR,0.31,VWS V14.00,2013-03-09 21:52:00,
2013-03-09 16:57:00,39.1,31.2,30.26,SE,126,1.0,6.0,73,0.01,,CLR,0.31,VWS V14.00,2013-03-09 21:57:00,
2013-03-09 17:02:00,38.8,31.2,30.26,SE,126,3.0,3.0,74,0.00,,CLR,0.31,VWS V14.00,2013-03-09 22:02:00,
2013-03-09 17:07:00,38.5,31.0,30.26,SE,128,2.0,5.0,74,0.00,,CLR,0.31,VWS V14.00,2013-03-09 22:07:00,
2013-03-09 17:12:00,38.3,30.8,30.27,South,180,1.0,5.0,74,0.00,,CLR,0.31,VWS V14.00,2013-03-09 22:12:00,
2013-03-09 17:17:00,38.1,30.6,30.27,South,180,2.0,5.0,74,0.00,,CLR,0.31,VWS V14.00,2013-03-09 22:17:00,
2013-03-09 17:22:00,37.8,30.6,30.27,South,180,0.0,5.0,75,0.00,,CLR,0.31,VWS V14.00,2013-03-09 22:22:00,
2013-03-09 17:27:00,37.7,30.8,30.27,South,180,0.0,5.0,76,0.00,,CLR,0.31,VWS V14.00,2013-03-09 22:27:00,
2013-03-09 17:32:00,37.3,30.4,30.28,South,180,1.0,2.0,76,0.00,,CLR,0.31,VWS V14.00,2013-03-09 22:32:00,
2013-03-09 17:37:00,37.0,30.5,30.28,South,179,1.0,3.0,77,0.00,,CLR,0.31,VWS V14.00,2013-03-09 22:37:00,
2013-03-09 17:42:00,36.7,30.5,30.29,South,180,1.0,3.0,78,0.00,,CLR,0.31,VWS V14.00,2013-03-09 22:42:00,
2013-03-09 17:47:00,36.5,30.3,30.29,South,180,2.0,3.0,78,0.00,,CLR,0.31,VWS V14.00,2013-03-09 22:47:00,
2013-03-09 17:52:00,36.1,29.9,30.29,South,180,1.0,3.0,78,0.00,,CLR,0.31,VWS V14.00,2013-03-09 22:52:00,
2013-03-09 17:57:00,35.8,29.9,30.28,South,180,1.0,3.0,79,0.00,,CLR,0.31,VWS V14.00,2013-03-09 22:57:00,
2013-03-09 18:02:00,35.5,30.0,30.29,South,180,0.0,3.0,80,0.00,,CLR,0.31,VWS V14.00,2013-03-09 23:02:00,
2013-03-09 18:07:00,35.1,29.6,30.30,South,180,1.0,3.0,80,0.00,,CLR,0.31,VWS V14.00,2013-03-09 23:07:00,
2013-03-09 18:12:00,34.8,29.6,30.30,South,180,1.0,3.0,81,0.00,,CLR,0.31,VWS V14.00,2013-03-09 23:12:00,
2013-03-09 18:17:00,34.5,29.3,30.29,South,180,1.0,3.0,81,0.00,,CLR,0.31,VWS V14.00,2013-03-09 23:17:00,
2013-03-09 18:22:00,34.3,29.4,30.30,South,180,0.0,3.0,82,0.00,,CLR,0.31,VWS V14.00,2013-03-09 23:22:00,
2013-03-09 18:27:00,33.8,28.9,30.29,South,180,0.0,3.0,82,0.00,,CLR,0.31,VWS V14.00,2013-03-09 23:27:00,
2013-03-09 18:32:00,33.5,28.9,30.29,South,180,0.0,1.0,83,0.00,,CLR,0.31,VWS V14.00,2013-03-09 23:32:00,
2013-03-09 18:37:00,33.3,28.7,30.29,South,180,0.0,3.0,83,0.00,,CLR,0.31,VWS V14.00,2013-03-09 23:37:00,
2013-03-09 18:42:00,33.0,28.7,30.29,South,180,0.0,3.0,84,0.00,,CLR,0.31,VWS V14.00,2013-03-09 23:42:00,
2013-03-09 18:47:00,32.7,28.4,30.30,South,180,0.0,3.0,84,0.00,,CLR,0.31,VWS V14.00,2013-03-09 23:47:00,
2013-03-09 18:52:00,32.4,28.4,30.30,South,180,0.0,3.0,85,0.00,,CLR,0.31,VWS V14.00,2013-03-09 23:52:00,
2013-03-09 18:57:00,32.3,28.3,30.30,South,180,0.0,3.0,85,0.00,,CLR,0.31,VWS V14.00,2013-03-09 23:57:00,
2013-03-09 19:02:00,32.0,28.0,30.30,South,180,0.0,3.0,85,0.00,,CLR,0.31,VWS V14.00,2013-03-10 00:02:00,
2013-03-09 19:07:00,31.7,28.0,30.30,South,180,0.0,3.0,86,0.00,,CLR,0.31,VWS V14.00,2013-03-10 00:07:00,
2013-03-09 19:12:00,31.6,27.9,30.30,South,180,0.0,3.0,86,0.00,,CLR,0.31,VWS V14.00,2013-03-10 00:12:00,
2013-03-09 19:17:00,31.4,27.7,30.30,South,180,0.0,3.0,86,0.00,,CLR,0.31,VWS V14.00,2013-03-10 00:17:00,
2013-03-09 19:22:00,31.3,27.9,30.30,South,180,0.0,3.0,87,0.00,,CLR,0.31,VWS V14.00,2013-03-10 00:22:00,
2013-03-09 19:27:00,31.1,28.0,30.31,South,180,0.0,3.0,88,0.00,,CLR,0.31,VWS V14.00,2013-03-10 00:27:00,
2013-03-09 19:32:00,30.8,27.4,30.31,South,180,0.0,0.0,87,0.00,,CLR,0.31,VWS V14.00,2013-03-10 00:32:00,
2013-03-09 19:37:00,30.7,27.6,30.31,South,180,0.0,0.0,88,0.00,,CLR,0.31,VWS V14.00,2013-03-10 00:37:00,
2013-03-09 19:42:00,30.4,27.3,30.31,South,180,0.0,0.0,88,0.00,,CLR,0.31,VWS V14.00,2013-03-10 00:42:00,
2013-03-09 19:47:00,30.1,27.0,30.32,South,180,0.0,0.0,88,0.00,,CLR,0.31,VWS V14.00,2013-03-10 00:47:00,
2013-03-09 19:52:00,29.6,26.5,30.32,South,180,0.0,0.0,88,0.00,,CLR,0.31,VWS V14.00,2013-03-10 00:52:00,
2013-03-09 19:57:00,29.5,26.9,30.32,South,180,0.0,0.0,90,0.00,,CLR,0.31,VWS V14.00,2013-03-10 00:57:00,
2013-03-09 20:02:00,29.2,26.6,30.32,South,180,1.0,1.0,90,0.00,,CLR,0.31,VWS V14.00,2013-03-10 01:02:00,
2013-03-09 20:07:00,29.0,26.4,30.32,South,180,0.0,1.0,90,0.00,,CLR,0.31,VWS V14.00,2013-03-10 01:07:00,
2013-03-09 20:12:00,28.9,26.6,30.32,South,180,0.0,1.0,91,0.00,,CLR,0.31,VWS V14.00,2013-03-10 01:12:00,
2013-03-09 20:17:00,28.6,26.3,30.32,South,180,0.0,2.0,91,0.00,,CLR,0.31,VWS V14.00,2013-03-10 01:17:00,
2013-03-09 20:22:00,28.5,26.2,30.32,South,180,0.0,2.0,91,0.00,,CLR,0.31,VWS V14.00,2013-03-10 01:22:00,
2013-03-09 20:27:00,28.3,26.3,30.33,South,180,0.0,2.0,92,0.00,,CLR,0.31,VWS V14.00,2013-03-10 01:27:00,
2013-03-09 20:32:00,28.3,26.3,30.33,South,180,0.0,0.0,92,0.00,,CLR,0.31,VWS V14.00,2013-03-10 01:32:00,
2013-03-09 20:37:00,28.2,26.4,30.33,South,180,0.0,0.0,93,0.00,,CLR,0.31,VWS V14.00,2013-03-10 01:37:00,
2013-03-09 20:42:00,28.2,26.4,30.33,South,180,0.0,0.0,93,0.00,,CLR,0.31,VWS V14.00,2013-03-10 01:42:00,
2013-03-09 20:47:00,28.0,26.5,30.33,South,180,0.0,0.0,94,0.00,,CLR,0.31,VWS V14.00,2013-03-10 01:47:00,
2013-03-09 20:52:00,28.0,26.5,30.33,South,180,0.0,0.0,94,0.00,,CLR,0.31,VWS V14.00,2013-03-10 01:52:00,
2013-03-09 20:57:00,27.9,26.4,30.33,South,180,0.0,0.0,94,0.00,,CLR,0.31,VWS V14.00,2013-03-10 01:57:00,
2013-03-09 21:02:00,27.9,26.4,30.34,South,180,0.0,0.0,94,0.00,,CLR,0.31,VWS V14.00,2013-03-10 02:02:00,
2013-03-09 21:07:00,27.9,26.4,30.34,South,180,0.0,0.0,94,0.00,,CLR,0.31,VWS V14.00,2013-03-10 02:07:00,
2013-03-09 21:12:00,27.7,26.5,30.33,South,180,0.0,0.0,95,0.00,,CLR,0.31,VWS V14.00,2013-03-10 02:12:00,
2013-03-09 21:17:00,27.7,26.5,30.34,South,180,0.0,0.0,95,0.00,,CLR,0.31,VWS V14.00,2013-03-10 02:17:00,
2013-03-09 21:22:00,27.7,26.5,30.34,South,180,0.0,0.0,95,0.00,,CLR,0.31,VWS V14.00,2013-03-10 02:22:00,
2013-03-09 21:27:00,27.7,26.7,30.33,South,180,0.0,0.0,96,0.00,,CLR,0.31,VWS V14.00,2013-03-10 02:27:00,
2013-03-09 21:32:00,27.7,26.7,30.33,South,180,0.0,0.0,96,0.00,,CLR,0.31,VWS V14.00,2013-03-10 02:32:00,
2013-03-09 21:37:00,27.6,26.4,30.33,South,180,0.0,0.0,95,0.00,,CLR,0.31,VWS V14.00,2013-03-10 02:37:00,
2013-03-09 21:42:00,27.6,26.6,30.33,South,180,0.0,0.0,96,0.00,,CLR,0.31,VWS V14.00,2013-03-10 02:42:00,
2013-03-09 21:47:00,27.6,26.6,30.33,South,180,0.0,0.0,96,0.00,,CLR,0.31,VWS V14.00,2013-03-10 02:47:00,
2013-03-09 21:52:00,27.6,26.6,30.33,South,180,0.0,0.0,96,0.00,,CLR,0.31,VWS V14.00,2013-03-10 02:52:00,
2013-03-09 21:57:00,27.6,26.6,30.33,South,180,0.0,0.0,96,0.00,,CLR,0.31,VWS V14.00,2013-03-10 02:57:00,
2013-03-09 22:02:00,27.4,26.4,30.33,South,180,0.0,0.0,96,0.00,,CLR,0.31,VWS V14.00,2013-03-10 03:02:00,
2013-03-09 22:07:00,27.4,26.4,30.32,South,180,0.0,0.0,96,0.00,,CLR,0.31,VWS V14.00,2013-03-10 03:07:00,
2013-03-09 22:12:00,27.4,26.7,30.32,South,180,0.0,0.0,97,0.00,,CLR,0.31,VWS V14.00,2013-03-10 03:12:00,
2013-03-09 22:17:00,27.4,26.4,30.33,South,180,0.0,0.0,96,0.00,,CLR,0.31,VWS V14.00,2013-03-10 03:17:00,
2013-03-09 22:22:00,27.6,26.9,30.33,South,180,0.0,0.0,97,0.00,,CLR,0.31,VWS V14.00,2013-03-10 03:22:00,
2013-03-09 22:27:00,27.6,26.9,30.33,South,180,0.0,0.0,97,0.00,,CLR,0.31,VWS V14.00,2013-03-10 03:27:00,
2013-03-09 22:32:00,27.4,26.7,30.33,South,180,0.0,0.0,97,0.00,,CLR,0.31,VWS V14.00,2013-03-10 03:32:00,
2013-03-09 22:37:00,27.3,26.6,30.33,South,180,0.0,0.0,97,0.00,,CLR,0.31,VWS V14.00,2013-03-10 03:37:00,
2013-03-09 22:42:00,27.1,26.4,30.33,South,180,0.0,0.0,97,0.00,,CLR,0.31,VWS V14.00,2013-03-10 03:42:00,
2013-03-09 22:47:00,26.8,26.1,30.32,South,180,0.0,0.0,97,0.00,,CLR,0.31,VWS V14.00,2013-03-10 03:47:00,
2013-03-09 22:52:00,26.7,26.0,30.33,South,180,0.0,0.0,97,0.00,,CLR,0.31,VWS V14.00,2013-03-10 03:52:00,
2013-03-09 22:57:00,26.5,25.8,30.33,South,180,0.0,0.0,97,0.00,,CLR,0.31,VWS V14.00,2013-03-10 03:57:00,
2013-03-09 23:02:00,26.5,25.8,30.33,South,180,0.0,0.0,97,0.00,,FEW011,0.31,VWS V14.00,2013-03-10 04:02:00,
2013-03-09 23:07:00,26.5,25.8,30.33,South,180,0.0,0.0,97,0.00,,FEW011,0.31,VWS V14.00,2013-03-10 04:07:00,
2013-03-09 23:12:00,26.6,25.9,30.34,South,180,0.0,0.0,97,0.00,,FEW011,0.31,VWS V14.00,2013-03-10 04:12:00,
2013-03-09 23:17:00,26.5,25.8,30.34,South,180,0.0,0.0,97,0.00,,FEW011,0.31,VWS V14.00,2013-03-10 04:17:00,
2013-03-09 23:22:00,26.6,26.1,30.33,South,180,0.0,0.0,98,0.00,,FEW011,0.31,VWS V14.00,2013-03-10 04:22:00,
2013-03-09 23:27:00,26.5,26.0,30.34,South,179,0.0,2.0,98,0.00,,FEW011,0.31,VWS V14.00,2013-03-10 04:27:00,
2013-03-09 23:32:00,26.5,25.8,30.34,South,180,0.0,0.0,97,0.00,,FEW011,0.31,VWS V14.00,2013-03-10 04:32:00,
2013-03-09 23:37:00,26.7,26.2,30.34,South,180,0.0,0.0,98,0.00,,FEW011,0.31,VWS V14.00,2013-03-10 04:37:00,
2013-03-09 23:42:00,26.7,26.2,30.35,South,180,0.0,0.0,98,0.00,,FEW011,0.31,VWS V14.00,2013-03-10 04:42:00,
2013-03-09 23:47:00,26.7,26.2,30.34,South,180,0.0,0.0,98,0.00,,FEW011,0.31,VWS V14.00,2013-03-10 04:47:00,
2013-03-09 23:52:00,26.5,26.0,30.34,South,180,0.0,0.0,98,0.00,,FEW011,0.31,VWS V14.00,2013-03-10 04:52:00,
2013-03-09 23:57:00,26.4,25.9,30.34,South,180,0.0,2.0,98,0.00,,FEW011,0.31,VWS V14.00,2013-03-10 04:57:00,